This demonstration page uses our WeatherBlox Daily Observations layout. Learn more.

36.19886, -115.1175

Hourly Observations for August 5, 2020

Temp ( °F °C ) Dew Point ( °F °C ) Humidity (%) Winds ( mph kmh ) Pressure ( in mb ) Visibility ( mi km ) Precip ( " mm )
12:53 am 00:53 Clear 87 30.6 32 0 14 14 ESE 7 11 29.76 1008 10 16.0934 0 0
1:53 am 01:53 Clear 85 29.4 30 -1.1 14 14 ESE 5 7 29.76 1008 10 16.0934 0 0
2:53 am 02:53 Clear 83 28.3 35 1.7 18 18 WNW 5 7 29.76 1008 10 16.0934 0 0
3:53 am 03:53 Clear 81 27.2 36 2.2 20 20 N 5 7 29.76 1008 10 16.0934 0 0
4:53 am 04:53 Clear 83 28.3 34 1.1 17 17 E 7 11 29.77 1008 10 16.0934 0 0
5:53 am 05:53 Sunny 81 27.2 34 1.1 18 18 NNW 3 6 29.78 1009 10 16.0934 0 0
6:53 am 06:53 Sunny 83 28.3 35 1.7 18 18 NNE 7 11 29.8 1009 10 16.0934 0 0
7:53 am 07:53 Sunny 86 30 39 3.9 19 19 E 8 13 29.81 1009 10 16.0934 0 0
8:53 am 08:53 Sunny 89 31.7 38 3.3 16 16 SE 8 13 29.81 1010 10 16.0934 0 0
9:53 am 09:53 Sunny 92 33.3 35 1.7 13 13 SE 8 13 29.81 1010 10 16.0934 0 0
10:53 am 10:53 Sunny 95 35 34 1.1 12 12 ESE 9 15 29.81 1010 10 16.0934 0 0
11:53 am 11:53 Sunny 98 36.7 34 1.1 11 11 SSE 12 19 29.8 1009 10 16.0934 0 0
12:53 pm 12:53 Sunny 99 37.2 34 1.1 10 10 E 9 15 29.78 1008 10 16.0934 0 0
1:53 pm 13:53 Sunny 104 40 25 -3.9 6 6 S 21 33 29.74 1007 10 16.0934 0 0
2:11 pm 14:11 Sunny 104 40 22 -5.6 5 5 S 15 24 29.57 1001 10 16.0934 0 0
2:53 pm 14:53 Sunny 105 40.6 24 -4.4 6 6 S 18 30 29.72 1006 10 16.0934 0 0
3:53 pm 15:53 Sunny 104 40 27 -2.8 7 7 SSW 14 22 29.71 1006 10 16.0934 0 0
4:53 pm 16:53 Sunny 103 39.4 24 -4.4 6 6 SW 18 30 29.69 1005 10 16.0934 0 0
5:53 pm 17:53 Sunny 102 38.9 24 -4.4 6 6 SW 12 19 29.67 1005 10 16.0934 0 0
6:53 pm 18:53 Sunny 101 38.3 29 -1.7 8 8 SW 15 24 29.67 1005 10 16.0934 0 0
7:53 pm 19:53 Clear 99 37.2 30 -1.1 9 9 SW 10 17 29.68 1005 10 16.0934 0 0
8:53 pm 20:53 Clear 97 36.1 30 -1.1 9 9 SSW 8 13 29.69 1006 10 16.0934 0 0
9:53 pm 21:53 Clear 94 34.4 30 -1.1 10 10 SW 6 9 29.7 1006 10 16.0934 0 0
10:53 pm 22:53 Clear 93 33.9 31 -0.6 11 11 SW 10 17 29.7 1006 10 16.0934 0 0
11:53 pm 23:53 Clear 92 33.3 35 1.7 13 13 SW 8 13 29.7 1006 10 16.0934 0 0

Powered by AerisWeather